Location: Aufkirchen
(47.9603°N, 11.3653°E)
Time: 15:27:45
(UTC+01:00)

Transit 2A - Pass Details

Date: 02 December 2020
Orbit: 599 x 960 km, 66.7° (Epoch: 25 January)

Event Time Altitude Azimuth Distance (km) Brightness Sun altitude
Rises 19:53:49 0° 283° (WNW) 3,566 10.5 -34.4°
Reaches altitude 10° 19:57:42 10° 306° (NW) 2,566 9.3 -35.0°
Maximum altitude 20:00:56 15° 339° (NNW) 2,186 8.6 -35.6°
Enters shadow 20:01:23 15° 344° (NNW) 2,185 8.5 -35.7°
Drops below altitude 10° 20:04:02 10° 13° (NNE) 2,444 - -36.1°
Sets 20:07:36 0° 37° (NE) 3,295 - -36.7°
